STARLINK-33953

Satellite information

Favourite Embed

Satellite Type and Status

PAYLOADIN ORBIT

Key statistics

Satellite STARLINK-33953 at a glance.

Uptime

211

Days in orbit

Revolutions

≈ 15.0

Per day

Orbit

LEO

Low Earth Orbit

Inclination

70.0

Latest

Satellite identification and parameters

Extended collection of information and parameters for STARLINK-33953.

Object identification

Identified? True

Debris? False

Object name: STARLINK-33953

International designator: 2025-102G

Object number (NORAD): 64028

Object ID (CCSDS): 64028

Country: UNITED STATES OF AMERICA (US)

Current information (Y/N): Y

RCS size: LARGE

Orbital parameters

Period: 96.106 minutes

Inclination: 70.002 deg

SMA: 6950.166 km

Apoapsis: 574.242 km

Periapsis: 569.82 km

RAAN: 334.6656 deg

Eccentricy: 0.00031811

Argument of periapsis: 261.5611 deg

Mean anomaly: 98.5187 deg

Mean motion: 14.98338719 rev/day

Mean motion (dot): 0.00007177 rev/day2

B* drag term: 0.00060856568 1/REarth

Two-line elements (TLE)

Creation date: Dec. 12, 2025, 10:14 a.m.

Reference frame: TEME

Reference center: EARTH

Epoch: Dec. 12, 2025, 6:45 a.m. UTC

TLE line 0: 0 STARLINK-33953

TLE line 1: 1 64028U 25102G 25346.28133050 .00007177 00000-0 60857-3 0 9993

TLE line 2: 2 64028 70.0020 334.6656 0003181 261.5611 98.5187 14.98338719 32960

Live tracking on map

Real-time ground track for satellite STARLINK-33953.

In-orbit conjunctions

There are no conjunctions computed for STARLINK-33953, at the moment. Check back to stay up to date, as we update our databases every day.

Go to all conjunctions

Associated space launch

A batch of 26 satellites for the Starlink mega-constellation - SpaceX's project for space-based Internet communication system.

STARLINK-33953 was lifted into orbit during the mission ‘Falcon 9 Block 5 | Starlink Group 15-5’, on board a Falcon 9 space rocket.

The launch took place on May 16, 2025, 1:43 p.m. from Space Launch Complex 4E.

For more information about the launch, click the button.

Launch to space Falcon 9 Block 5 | Starlink Group 15-5
Falcon 9 Block 5 | Starlink Group 15-5

Agency: SpaceX

Status: Launch Successful

Launch date: May 16, 2025, 1:43 p.m. UTC

Rocket: Falcon 9

Launch pad: Space Launch Complex 4E

Location: Vandenberg SFB, CA, USA

...

Latest news about this satellite

News about space launch
Live coverage: SpaceX plans morning launch of Starlink satellites from California

The Starlink 15-5 will be SpaceX’s 58th Falcon 9 launch of the year. Liftoff from pad 4 East at Vandneberg Space Force Base is targeted 6:43 a.m. PDT (9:43 a.m. EDT, 1343 UTC).

News about space launch
Launch Roundup: Orbital launches from five countries planned

On the heels of a busy April, activity is ramping up for May with launches… The post Launch Roundup: Orbital launches from five countries planned appeared first on NASASpaceFlight.com.


Newsletter sign-up

Weekly statistics, charts and insights to help you stay on top of the space industry.